Time,TemperatureF,DewpointF,PressureIn,WindDirection,WindDirectionDegrees,WindSpeedMPH,WindSpeedGustMPH,Humidity,HourlyPrecipIn,Conditions,Clouds,dailyrainin,SolarRadiationWatts/m^2,SoftwareType,DateUTC
2013-04-14 00:04:00,43.4,33.0,30.00,West,280,0.0,0.0,67,0.00,,,0.00,0,weatherlink.com 1.10,2013-04-14 04:04:00,
2013-04-14 00:19:00,43.4,33.0,30.00,West,280,0.0,0.0,68,0.00,,,0.00,0,weatherlink.com 1.10,2013-04-14 04:19:00,
2013-04-14 00:34:00,43.1,33.0,30.01,West,280,0.0,0.0,68,0.00,,,0.00,0,weatherlink.com 1.10,2013-04-14 04:34:00,
2013-04-14 00:49:00,42.9,33.0,30.01,West,280,0.0,0.0,69,0.00,,,0.00,0,weatherlink.com 1.10,2013-04-14 04:49:00,
2013-04-14 01:04:00,42.9,34.0,30.01,West,280,0.0,0.0,70,0.00,,,0.00,0,weatherlink.com 1.10,2013-04-14 05:04:00,
2013-04-14 01:19:00,42.7,34.0,30.02,West,280,0.0,0.0,70,0.00,,,0.00,0,weatherlink.com 1.10,2013-04-14 05:19:00,
2013-04-14 01:34:00,42.5,34.0,30.01,West,280,0.0,0.0,71,0.00,,,0.00,0,weatherlink.com 1.10,2013-04-14 05:34:00,
2013-04-14 01:49:00,43.0,34.0,30.00,West,280,1.0,2.0,70,0.00,,,0.00,0,weatherlink.com 1.10,2013-04-14 05:49:00,
2013-04-14 02:04:00,43.4,34.0,30.00,West,280,0.0,1.0,69,0.00,,,0.00,0,weatherlink.com 1.10,2013-04-14 06:04:00,
2013-04-14 02:19:00,43.1,34.0,30.00,West,280,0.0,1.0,70,0.00,,,0.00,0,weatherlink.com 1.10,2013-04-14 06:19:00,
2013-04-14 02:34:00,42.6,34.0,29.99,West,280,0.0,2.0,71,0.00,,,0.00,0,weatherlink.com 1.10,2013-04-14 06:34:00,
2013-04-14 02:49:00,42.2,33.0,30.00,West,280,0.0,0.0,71,0.00,,,0.00,0,weatherlink.com 1.10,2013-04-14 06:49:00,
2013-04-14 03:04:00,41.8,33.0,30.00,West,280,0.0,0.0,72,0.00,,,0.00,0,weatherlink.com 1.10,2013-04-14 07:04:00,
2013-04-14 03:19:00,42.1,34.0,30.01,West,280,0.0,0.0,72,0.00,,,0.00,0,weatherlink.com 1.10,2013-04-14 07:19:00,
2013-04-14 03:34:00,42.6,35.0,30.01,West,280,0.0,1.0,74,0.00,,,0.00,0,weatherlink.com 1.10,2013-04-14 07:34:00,
2013-04-14 03:49:00,42.2,34.0,30.01,West,280,0.0,0.0,74,0.00,,,0.00,0,weatherlink.com 1.10,2013-04-14 07:49:00,
2013-04-14 04:04:00,42.1,35.0,30.02,West,280,0.0,0.0,75,0.00,,,0.00,0,weatherlink.com 1.10,2013-04-14 08:04:00,
2013-04-14 04:19:00,43.1,36.0,30.02,West,280,0.0,2.0,75,0.00,,,0.00,0,weatherlink.com 1.10,2013-04-14 08:19:00,
2013-04-14 04:34:00,43.6,37.0,30.02,West,280,0.0,1.0,78,0.00,,,0.00,0,weatherlink.com 1.10,2013-04-14 08:34:00,
2013-04-14 04:49:00,43.4,38.0,30.02,West,280,0.0,0.0,82,0.00,,,0.00,0,weatherlink.com 1.10,2013-04-14 08:49:00,
2013-04-14 05:04:00,42.9,38.0,30.02,West,280,0.0,1.0,83,0.00,,,0.00,0,weatherlink.com 1.10,2013-04-14 09:04:00,
2013-04-14 05:19:00,42.0,38.0,30.02,West,280,0.0,1.0,85,0.00,,,0.00,0,weatherlink.com 1.10,2013-04-14 09:19:00,
2013-04-14 05:34:00,41.8,38.0,30.00,West,280,0.0,2.0,85,0.00,,,0.00,0,weatherlink.com 1.10,2013-04-14 09:34:00,
2013-04-14 05:49:00,41.5,38.0,29.99,West,280,1.0,1.0,87,0.00,,,0.00,0,weatherlink.com 1.10,2013-04-14 09:49:00,
2013-04-14 06:04:00,41.8,38.0,29.98,West,280,1.0,2.0,85,0.00,,,0.00,0,weatherlink.com 1.10,2013-04-14 10:04:00,
2013-04-14 06:19:00,41.9,37.0,29.98,West,280,0.0,2.0,83,0.00,,,0.00,0,weatherlink.com 1.10,2013-04-14 10:19:00,
2013-04-14 06:34:00,42.2,36.0,29.97,West,280,1.0,1.0,80,0.00,,,0.00,0,weatherlink.com 1.10,2013-04-14 10:34:00,
2013-04-14 06:49:00,42.2,37.0,29.97,West,280,1.0,2.0,81,0.00,,,0.00,0,weatherlink.com 1.10,2013-04-14 10:49:00,
2013-04-14 07:04:00,42.2,36.0,29.96,West,280,1.0,4.0,80,0.00,,,0.00,0,weatherlink.com 1.10,2013-04-14 11:04:00,
2013-04-14 07:19:00,43.3,37.0,29.96,West,280,3.0,4.0,77,0.00,,,0.00,7,weatherlink.com 1.10,2013-04-14 11:19:00,
2013-04-14 07:34:00,44.3,37.0,29.97,ESE,113,5.0,6.0,74,0.00,,,0.00,16,weatherlink.com 1.10,2013-04-14 11:34:00,
2013-04-14 07:49:00,45.2,37.0,29.98,SE,125,1.0,7.0,73,0.00,,,0.00,26,weatherlink.com 1.10,2013-04-14 11:49:00,
2013-04-14 08:04:00,46.1,36.0,29.98,ESE,106,4.0,8.0,69,0.00,,,0.00,40,weatherlink.com 1.10,2013-04-14 12:04:00,
2013-04-14 08:20:00,46.7,37.0,29.99,ENE,66,3.0,7.0,69,0.00,,,0.00,70,weatherlink.com 1.10,2013-04-14 12:20:00,
2013-04-14 08:35:00,47.7,38.0,29.98,ENE,69,4.0,5.0,68,0.00,,,0.00,105,weatherlink.com 1.10,2013-04-14 12:35:00,
2013-04-14 08:50:00,49.0,38.0,29.98,ENE,72,1.0,5.0,67,0.00,,,0.00,186,weatherlink.com 1.10,2013-04-14 12:50:00,
2013-04-14 09:05:00,50.3,39.0,29.98,SE,126,1.0,5.0,66,0.00,,,0.00,188,weatherlink.com 1.10,2013-04-14 13:05:00,
2013-04-14 09:20:00,51.3,39.0,29.98,East,82,2.0,6.0,63,0.00,,,0.00,278,weatherlink.com 1.10,2013-04-14 13:20:00,
2013-04-14 09:35:00,52.1,40.0,29.98,ENE,76,3.0,5.0,64,0.00,,,0.00,267,weatherlink.com 1.10,2013-04-14 13:35:00,
2013-04-14 09:50:00,53.0,41.0,29.97,SE,146,2.0,11.0,63,0.00,,,0.00,202,weatherlink.com 1.10,2013-04-14 13:50:00,
2013-04-14 10:05:00,53.8,40.0,29.96,ESE,115,6.0,10.0,60,0.00,,,0.00,172,weatherlink.com 1.10,2013-04-14 14:05:00,
2013-04-14 10:20:00,54.5,40.0,29.96,SE,136,0.0,9.0,58,0.00,,,0.00,353,weatherlink.com 1.10,2013-04-14 14:20:00,
2013-04-14 10:35:00,56.3,41.0,29.96,SSE,157,2.0,7.0,58,0.00,,,0.00,462,weatherlink.com 1.10,2013-04-14 14:35:00,
2013-04-14 10:50:00,58.2,41.0,29.95,ESE,108,0.0,5.0,54,0.00,,,0.00,499,weatherlink.com 1.10,2013-04-14 14:50:00,
2013-04-14 11:05:00,58.9,41.0,29.95,East,86,2.0,5.0,52,0.00,,,0.00,480,weatherlink.com 1.10,2013-04-14 15:05:00,
2013-04-14 11:20:00,60.1,41.0,29.94,SE,130,2.0,5.0,50,0.00,,,0.00,587,weatherlink.com 1.10,2013-04-14 15:20:00,
2013-04-14 11:35:00,61.7,43.0,29.94,SSW,206,7.0,8.0,51,0.00,,,0.00,664,weatherlink.com 1.10,2013-04-14 15:35:00,
2013-04-14 11:50:00,62.5,42.0,29.94,SSW,202,4.0,8.0,47,0.00,,,0.00,737,weatherlink.com 1.10,2013-04-14 15:50:00,
2013-04-14 12:05:00,64.2,44.0,29.93,SSW,199,4.0,8.0,48,0.00,,,0.00,744,weatherlink.com 1.10,2013-04-14 16:05:00,
2013-04-14 12:21:00,65.9,44.0,29.93,SSW,209,6.0,10.0,46,0.00,,,0.00,756,weatherlink.com 1.10,2013-04-14 16:21:00,
2013-04-14 12:36:00,66.8,43.0,29.92,East,95,5.0,10.0,42,0.00,,,0.00,710,weatherlink.com 1.10,2013-04-14 16:36:00,
2013-04-14 12:51:00,67.9,43.0,29.91,SSW,211,5.0,10.0,40,0.00,,,0.00,742,weatherlink.com 1.10,2013-04-14 16:51:00,
2013-04-14 13:06:00,69.1,43.0,29.91,WSW,246,3.0,10.0,39,0.00,,,0.00,742,weatherlink.com 1.10,2013-04-14 17:06:00,
2013-04-14 13:36:00,70.2,43.0,29.89,SE,142,5.0,15.0,38,0.00,,,0.00,830,weatherlink.com 1.10,2013-04-14 17:36:00,
2013-04-14 13:51:00,71.1,44.0,29.89,SSE,156,5.0,11.0,38,0.00,,,0.00,819,weatherlink.com 1.10,2013-04-14 17:51:00,
2013-04-14 14:06:00,71.5,46.0,29.88,SSE,166,1.0,8.0,40,0.00,,,0.00,712,weatherlink.com 1.10,2013-04-14 18:06:00,
2013-04-14 14:21:00,71.7,43.0,29.88,SSE,162,4.0,12.0,36,0.00,,,0.00,596,weatherlink.com 1.10,2013-04-14 18:21:00,
2013-04-14 14:36:00,72.2,44.0,29.88,SSE,165,8.0,11.0,37,0.00,,,0.00,817,weatherlink.com 1.10,2013-04-14 18:36:00,
2013-04-14 14:51:00,73.0,44.0,29.87,SE,126,5.0,10.0,35,0.00,,,0.00,701,weatherlink.com 1.10,2013-04-14 18:51:00,
2013-04-14 15:06:00,72.6,44.0,29.86,SSE,163,8.0,8.0,36,0.00,,,0.00,656,weatherlink.com 1.10,2013-04-14 19:06:00,
2013-04-14 15:21:00,73.0,43.0,29.85,East,94,2.0,8.0,34,0.00,,,0.00,700,weatherlink.com 1.10,2013-04-14 19:21:00,
2013-04-14 15:36:00,73.4,44.0,29.84,East,101,2.0,8.0,35,0.00,,,0.00,703,weatherlink.com 1.10,2013-04-14 19:36:00,
2013-04-14 15:51:00,74.2,45.0,29.84,East,96,4.0,7.0,35,0.00,,,0.00,547,weatherlink.com 1.10,2013-04-14 19:51:00,
2013-04-14 16:06:00,74.3,44.0,29.83,SW,216,9.0,9.0,34,0.00,,,0.00,512,weatherlink.com 1.10,2013-04-14 20:06:00,
2013-04-14 16:21:00,73.8,43.0,29.82,SSE,150,4.0,16.0,33,0.00,,,0.00,434,weatherlink.com 1.10,2013-04-14 20:21:00,
2013-04-14 16:51:00,73.8,40.0,29.81,SSW,208,5.0,8.0,29,0.00,,,0.00,439,weatherlink.com 1.10,2013-04-14 20:51:00,
2013-04-14 17:06:00,73.9,40.0,29.81,SSW,206,1.0,11.0,29,0.00,,,0.00,480,weatherlink.com 1.10,2013-04-14 21:06:00,
2013-04-14 17:22:00,74.3,42.0,29.80,ENE,76,5.0,8.0,31,0.00,,,0.00,431,weatherlink.com 1.10,2013-04-14 21:22:00,
2013-04-14 17:36:00,74.4,41.0,29.79,ESE,123,5.0,11.0,30,0.00,,,0.00,512,weatherlink.com 1.10,2013-04-14 21:36:00,
2013-04-14 17:52:00,74.1,40.0,29.79,SE,144,6.0,11.0,29,0.00,,,0.00,316,weatherlink.com 1.10,2013-04-14 21:52:00,
2013-04-14 18:06:00,73.9,41.0,29.79,ESE,107,5.0,7.0,31,0.00,,,0.00,397,weatherlink.com 1.10,2013-04-14 22:06:00,
2013-04-14 18:22:00,74.5,44.0,29.79,South,171,5.0,9.0,34,0.00,,,0.00,390,weatherlink.com 1.10,2013-04-14 22:22:00,
2013-04-14 18:37:00,74.1,43.0,29.79,ESE,107,4.0,8.0,33,0.00,,,0.00,320,weatherlink.com 1.10,2013-04-14 22:37:00,
2013-04-14 18:52:00,72.9,43.0,29.79,South,177,7.0,10.0,34,0.00,,,0.00,237,weatherlink.com 1.10,2013-04-14 22:52:00,
2013-04-14 19:07:00,72.4,42.0,29.80,ESE,112,4.0,9.0,33,0.00,,,0.00,171,weatherlink.com 1.10,2013-04-14 23:07:00,
2013-04-14 19:22:00,71.5,42.0,29.80,SSW,195,3.0,7.0,34,0.00,,,0.00,88,weatherlink.com 1.10,2013-04-14 23:22:00,
2013-04-14 19:37:00,70.8,42.0,29.80,SE,140,1.0,6.0,36,0.00,,,0.00,42,weatherlink.com 1.10,2013-04-14 23:37:00,
2013-04-14 19:52:00,69.7,43.0,29.79,SSE,164,0.0,7.0,38,0.00,,,0.00,26,weatherlink.com 1.10,2013-04-14 23:52:00,
2013-04-14 20:07:00,69.6,41.0,29.79,SSW,192,1.0,10.0,35,0.00,,,0.00,14,weatherlink.com 1.10,2013-04-15 00:07:00,
2013-04-14 20:37:00,68.3,42.0,29.80,SSE,165,2.0,8.0,38,0.00,,,0.00,0,weatherlink.com 1.10,2013-04-15 00:37:00,
2013-04-14 20:52:00,68.0,42.0,29.80,SSE,168,5.0,13.0,39,0.00,,,0.00,0,weatherlink.com 1.10,2013-04-15 00:52:00,
2013-04-14 21:07:00,67.9,42.0,29.81,SSW,207,8.0,14.0,39,0.00,,,0.00,0,weatherlink.com 1.10,2013-04-15 01:07:00,
2013-04-14 21:22:00,67.6,42.0,29.81,South,173,5.0,12.0,40,0.00,,,0.00,0,weatherlink.com 1.10,2013-04-15 01:22:00,
2013-04-14 21:37:00,67.0,42.0,29.82,SSW,207,0.0,10.0,41,0.00,,,0.00,0,weatherlink.com 1.10,2013-04-15 01:37:00,
2013-04-14 21:52:00,66.4,42.0,29.82,SW,218,6.0,9.0,42,0.00,,,0.00,0,weatherlink.com 1.10,2013-04-15 01:52:00,
2013-04-14 22:07:00,65.9,43.0,29.82,SSW,213,6.0,12.0,43,0.00,,,0.00,0,weatherlink.com 1.10,2013-04-15 02:07:00,
2013-04-14 22:22:00,65.4,43.0,29.83,South,178,6.0,13.0,44,0.00,,,0.00,0,weatherlink.com 1.10,2013-04-15 02:22:00,
2013-04-14 22:37:00,64.8,44.0,29.84,SW,227,5.0,13.0,47,0.00,,,0.00,0,weatherlink.com 1.10,2013-04-15 02:37:00,
2013-04-14 22:52:00,64.2,44.0,29.84,West,273,6.0,13.0,48,0.00,,,0.00,0,weatherlink.com 1.10,2013-04-15 02:52:00,
2013-04-14 23:07:00,63.5,44.0,29.84,SSE,161,7.0,13.0,49,0.00,,,0.00,0,weatherlink.com 1.10,2013-04-15 03:07:00,
2013-04-14 23:22:00,62.8,44.0,29.84,SE,134,4.0,11.0,50,0.00,,,0.00,0,weatherlink.com 1.10,2013-04-15 03:22:00,
2013-04-14 23:37:00,62.2,44.0,29.83,SSE,153,4.0,11.0,51,0.00,,,0.00,0,weatherlink.com 1.10,2013-04-15 03:37:00,
2013-04-14 23:52:00,61.8,44.0,29.84,South,169,4.0,12.0,52,0.00,,,0.00,0,weatherlink.com 1.10,2013-04-15 03:52:00,